Baker, OR

5:27 AM PDT on May 27, 2017 (GMT -0700)
Baker City Municipal

Weather History for KBKE - November, 2012

Change the Weather History Date:

Saturday, November 17, 2012

  Actual Average Record
Temperature  
Mean Temperature 42 °F 32 °F  
Max Temperature 48 °F 43 °F 59 °F (1976)
Min Temperature 36 °F 22 °F -3 °F (2014)
Degree Days  
Heating Degree Days 23 33  
Month to date heating degree days 475 500  
Since 1 July heating degree days 1446 1579  
Cooling Degree Days 0 0  
Month to date cooling degree days 0 0  
Year to date cooling degree days 184 169  
Moisture  
Dew Point 38 °F    
Average Humidity 77    
Maximum Humidity 89    
Minimum Humidity 65    
Precipitation  
Precipitation 0.13 in 0.03 in 0.44 in (1979)
Month to date precipitation 0.20 0.49  
Year to date precipitation 7.12 8.74  
Sea Level Pressure  
Sea Level Pressure 29.77 in    
Wind  
Wind Speed 13 mph (East)    
Max Wind Speed 22 mph    
Max Gust Speed 28 mph    
Visibility 10 miles    
Events Rain    
T = Trace of Precipitation, MM = Missing Value Source: NWS Daily Summary

Daily Weather History Graph

Daily Weather History Graph

Search for Another Location

Airport or City:

Trip Planner

Search our weather history database for the weather conditions in past years. The results will help you decide how hot, cold, wet, or windy it might be!

Date:

Astronomy

Nov. 17, 2012 Rise Set
Actual Time 6:51 AM PST 4:20 PM PST
Civil Twilight 6:20 AM PST 4:52 PM PST
Nautical Twilight 5:44 AM PST 5:27 PM PST
Astronomical Twilight 5:09 AM PST 6:02 PM PST
Moon 10:40 AM PST (11/17) 8:36 PM PST (11/17)
Length of Visible Light 10h 32m
Length of Day
9h 28m
Waxing Crescent, 21% of the Moon is Illuminated
Nov 17
Waxing Crescent
Nov 20
First Quarter
Nov 28
Full
Dec 6
Last Quarter
Dec 13
New

Hourly Weather History & Observations

Time (PST) Temp. Windchill Dew Point Humidity Pressure Visibility Wind Dir Wind Speed Gust Speed Precip Events Conditions
12:53 AM 43.0 °F 36.0 °F 36.0 °F 76% 29.94 in 10.0 mi SSE 13.8 mph - N/A   Mostly Cloudy
1:53 AM 42.1 °F 37.1 °F 35.1 °F 76% 29.93 in 10.0 mi East 8.1 mph - N/A   Partly Cloudy
2:53 AM 39.9 °F 35.1 °F 34.0 °F 79% 29.92 in 10.0 mi East 6.9 mph - N/A   Clear
3:53 AM 43.0 °F 37.2 °F 35.1 °F 74% 29.91 in 10.0 mi ESE 10.4 mph - N/A   Mostly Cloudy
4:53 AM 43.0 °F 36.4 °F 35.1 °F 74% 29.90 in 10.0 mi East 12.7 mph - N/A   Mostly Cloudy
5:53 AM 44.1 °F 36.8 °F 35.1 °F 71% 29.88 in 10.0 mi East 16.1 mph - N/A   Scattered Clouds
6:53 AM 44.1 °F 37.1 °F 35.1 °F 71% 29.87 in 10.0 mi ESE 15.0 mph - N/A   Overcast
7:53 AM 45.0 °F 37.9 °F 35.1 °F 68% 29.86 in 10.0 mi ESE 16.1 mph - N/A   Overcast
8:53 AM 45.0 °F 37.4 °F 35.1 °F 68% 29.85 in 10.0 mi ESE 18.4 mph 24.2 mph N/A   Overcast
9:53 AM 46.9 °F - 36.0 °F 66% 29.83 in 10.0 mi East 19.6 mph 26.5 mph N/A   Mostly Cloudy
10:53 AM 46.0 °F 39.6 °F 37.9 °F 73% 29.81 in 10.0 mi ESE 15.0 mph - 0.00 in Rain Light Rain
11:15 AM 44.6 °F 37.8 °F 37.4 °F 76% 29.78 in 10.0 mi East 15.0 mph - 0.00 in Rain Light Rain
11:53 AM 42.1 °F 34.2 °F 39.0 °F 89% 29.78 in 7.0 mi East 16.1 mph - 0.01 in Rain Light Rain
12:53 PM 44.1 °F 37.7 °F 41.0 °F 89% 29.75 in 10.0 mi ENE 12.7 mph - 0.03 in Rain Light Rain
1:53 PM 45.0 °F 38.5 °F 39.9 °F 82% 29.73 in 10.0 mi East 13.8 mph - 0.00 in   Overcast
2:02 PM 44.6 °F 38.8 °F 39.2 °F 81% 29.71 in 10.0 mi East 11.5 mph - N/A   Overcast
2:53 PM 44.1 °F 37.7 °F 39.9 °F 85% 29.72 in 10.0 mi East 12.7 mph - 0.00 in Rain Light Rain
3:07 PM 44.6 °F 38.8 °F 39.2 °F 81% 29.70 in 10.0 mi East 11.5 mph - N/A   Overcast
3:27 PM 44.6 °F 40.7 °F 39.2 °F 81% 29.69 in 10.0 mi ESE 6.9 mph - N/A   Mostly Cloudy
3:53 PM 44.1 °F 39.0 °F 39.9 °F 85% 29.71 in 10.0 mi East 9.2 mph - 0.00 in   Scattered Clouds
4:53 PM 44.1 °F 38.6 °F 39.9 °F 85% 29.69 in 10.0 mi East 10.4 mph - N/A   Overcast
5:23 PM 44.6 °F 38.1 °F 39.2 °F 81% 29.67 in 10.0 mi East 13.8 mph - N/A   Overcast
5:53 PM 46.0 °F 41.0 °F 41.0 °F 83% 29.67 in 10.0 mi East 10.4 mph - 0.00 in Rain Light Rain
6:53 PM 46.0 °F 39.6 °F 41.0 °F 83% 29.66 in 10.0 mi ENE 15.0 mph - 0.00 in   Overcast
7:53 PM 46.9 °F - 41.0 °F 80% 29.65 in 10.0 mi East 10.4 mph 18.4 mph N/A   Overcast
8:25 PM 46.4 °F 40.7 °F 41.0 °F 81% 29.65 in 10.0 mi ENE 12.7 mph 20.7 mph N/A   Overcast
8:53 PM 48.0 °F - 41.0 °F 77% 29.64 in 10.0 mi ENE 8.1 mph - N/A   Overcast
9:53 PM 46.0 °F 42.5 °F 42.1 °F 86% 29.67 in 5.0 mi SE 6.9 mph - 0.03 in Rain Rain
10:34 PM 41.0 °F 35.2 °F 35.6 °F 81% 29.72 in 10.0 mi SE 9.2 mph - 0.06 in Rain Light Rain
10:53 PM 41.0 °F 33.9 °F 35.6 °F 81% 29.73 in 10.0 mi SSE 12.7 mph - N/A   Overcast
11:53 PM 35.6 °F 27.5 °F 33.8 °F 93% 29.79 in 10.0 mi NE 11.5 mph 20.7 mph N/A   Overcast